Location: Ferintosh
(52.7647°N, 112.9692°W)
Time: 00:12:40
(UTC+00:00)

S-56A Canister/Altair - Pass Details

Date: 24 May 2024
Orbit: 637 x 2489 km, 38.9° (Epoch: 20 June)

Event Time Altitude Azimuth Distance (km) Brightness Sun altitude
Rises 15:57:28 0° 255° (WSW) 5,527 11.5 38.8°
Reaches altitude 10° 16:01:54 10° 248° (WSW) 4,239 11.0 39.4°
Maximum altitude 16:10:59 33° 191° (S) 2,238 10.3 40.7°
Drops below altitude 10° 16:17:28 10° 131° (SE) 2,982 11.6 41.6°
Sets 16:20:03 0° 121° (ESE) 3,719 11.9 42.0°
